RAM965 LEBL-GMMN

Flight info

Callsign RAM965
Flight time 1h 52m
Altitude 35000
Route LOTOS DCT TORDU DCT DIKUT DCT SOPET DCT VLC DCT SERRA DCT ASTRO DCT POBOS DCT XEBAR DCT YES DCT MAMIS DCT BAZAS DCT VIBAS DCT MGA DCT PIMOS DCT GALTO UB11 TUSOR
Aircraft B738/M-SDE2E3FGHIRWXY/LB1

Departure

Time 2026-04-28 20:40
Airport Josep Tarradellas Barcelona-El Prat Airport (LEBL)

Arrival

Time 2026-04-28 22:33
Airport Mohammed V International Airport (GMMN)
Time Latitude Longitude Altitude Speed Heading
2026-04-28 20:10 41.29154 2.07948 20 ft 0 kts 154°
2026-04-28 20:30 41.29165 2.07940 18 ft 4 kts 154°
2026-04-28 20:30 41.29189 2.07924 20 ft 4 kts 149°
2026-04-28 20:30 41.29210 2.07903 20 ft 4 kts 126°
2026-04-28 20:30 41.29217 2.07880 20 ft 1 kts 66°
2026-04-28 20:31 41.29216 2.07879 20 ft 0 kts 65°
2026-04-28 20:33 41.29217 2.07879 20 ft 0 kts 65°
2026-04-28 20:34 41.29218 2.07883 19 ft 1 kts 65°
2026-04-28 20:34 41.29224 2.07900 21 ft 4 kts 65°
2026-04-28 20:34 41.29240 2.07947 18 ft 12 kts 65°
2026-04-28 20:35 41.29296 2.08110 18 ft 25 kts 65°
2026-04-28 20:35 41.29343 2.08243 18 ft 14 kts 65°
2026-04-28 20:35 41.29360 2.08361 18 ft 13 kts 115°
2026-04-28 20:35 41.29286 2.08427 19 ft 13 kts 154°
2026-04-28 20:36 41.29202 2.08445 19 ft 12 kts 194°
2026-04-28 20:36 41.29119 2.08409 18 ft 13 kts 198°
2026-04-28 20:36 41.29013 2.08362 17 ft 17 kts 199°
2026-04-28 20:36 41.28899 2.08313 17 ft 17 kts 197°
2026-04-28 20:37 41.28788 2.08268 16 ft 16 kts 199°
2026-04-28 20:37 41.28688 2.08205 16 ft 16 kts 226°
2026-04-28 20:37 41.28637 2.08081 17 ft 15 kts 245°
2026-04-28 20:37 41.28596 2.07956 17 ft 14 kts 247°
2026-04-28 20:38 41.28555 2.07830 18 ft 18 kts 245°
2026-04-28 20:38 41.28499 2.07670 15 ft 19 kts 245°
2026-04-28 20:38 41.28410 2.07557 17 ft 18 kts 205°
2026-04-28 20:38 41.28305 2.07474 16 ft 17 kts 233°
2026-04-28 20:39 41.28250 2.07424 18 ft 9 kts 124°
2026-04-28 20:39 41.28256 2.07506 19 ft 9 kts 69°
2026-04-28 20:39 41.28271 2.07552 18 ft 0 kts 64°
2026-04-28 20:40 41.28300 2.07629 18 ft 38 kts 64°
2026-04-28 20:40 41.28532 2.08281 21 ft 116 kts 65°
2026-04-28 20:40 41.28932 2.09510 65 ft 173 kts 68°
2026-04-28 20:40 41.29366 2.11078 781 ft 184 kts 77°
2026-04-28 20:41 41.29496 2.12714 2035 ft 169 kts 95°
2026-04-28 20:41 41.29311 2.14281 2821 ft 185 kts 105°
2026-04-28 20:41 41.28863 2.16034 3202 ft 209 kts 112°
2026-04-28 20:41 41.28420 2.17781 4254 ft 192 kts 105°
2026-04-28 20:42 41.28244 2.19616 4706 ft 215 kts 91°
2026-04-28 20:42 41.28237 2.21718 5004 ft 236 kts 95°
2026-04-28 20:42 41.28126 2.23914 5735 ft 237 kts 97°
2026-04-28 20:42 41.27964 2.26094 6539 ft 237 kts 98°
2026-04-28 20:43 41.27778 2.28277 7252 ft 239 kts 99°
2026-04-28 20:43 41.27580 2.30456 7935 ft 241 kts 101°
2026-04-28 20:43 41.27058 2.32607 8354 ft 256 kts 118°
2026-04-28 20:43 41.26151 2.34756 8636 ft 274 kts 132°
2026-04-28 20:44 41.24599 2.36145 9215 ft 278 kts 166°
2026-04-28 20:44 41.22690 2.36182 9975 ft 278 kts 194°
2026-04-28 20:44 41.20914 2.35086 10451 ft 292 kts 216°
2026-04-28 20:44 41.19392 2.33128 10490 ft 320 kts 231°
2026-04-28 20:45 41.18069 2.30594 10499 ft 347 kts 236°
2026-04-28 20:45 41.16765 2.27770 10506 ft 368 kts 238°
2026-04-28 20:45 41.15449 2.24840 10486 ft 371 kts 238°
2026-04-28 20:45 41.14119 2.21898 10479 ft 371 kts 238°
2026-04-28 20:46 41.12776 2.18975 10475 ft 370 kts 237°
2026-04-28 20:46 41.11419 2.16067 10488 ft 372 kts 237°
2026-04-28 20:46 41.10057 2.13184 11073 ft 373 kts 237°
2026-04-28 20:46 41.08677 2.10282 11875 ft 371 kts 237°
2026-04-28 20:47 41.07299 2.07399 12641 ft 371 kts 237°
2026-04-28 20:47 41.05912 2.04507 13324 ft 372 kts 237°
2026-04-28 20:47 41.04519 2.01607 13970 ft 374 kts 237°
2026-04-28 20:47 41.03139 1.98741 14499 ft 378 kts 237°
2026-04-28 20:48 41.01717 1.95790 15005 ft 382 kts 237°
2026-04-28 20:48 41.00280 1.92811 15517 ft 386 kts 237°
2026-04-28 20:48 40.98829 1.89806 16045 ft 389 kts 237°
2026-04-28 20:48 40.97365 1.86775 16511 ft 393 kts 237°
2026-04-28 20:49 40.95883 1.83712 17011 ft 397 kts 237°
2026-04-28 20:49 40.94387 1.80622 17499 ft 400 kts 237°
2026-04-28 20:49 40.92875 1.77504 17970 ft 404 kts 237°
2026-04-28 20:49 40.91348 1.74356 18418 ft 408 kts 237°
2026-04-28 20:50 40.89811 1.71192 18838 ft 410 kts 237°
2026-04-28 20:50 40.88263 1.68009 19292 ft 412 kts 237°
2026-04-28 20:50 40.86730 1.64858 19729 ft 414 kts 237°
2026-04-28 20:50 40.85166 1.61648 20139 ft 417 kts 237°
2026-04-28 20:51 40.83591 1.58418 20550 ft 420 kts 237°
2026-04-28 20:51 40.82003 1.55165 20955 ft 422 kts 237°
2026-04-28 20:51 40.80401 1.51887 21347 ft 425 kts 237°
2026-04-28 20:51 40.79337 1.49711 21563 ft 428 kts 237°
2026-04-28 20:52 40.77186 1.45258 22054 ft 431 kts 237°
2026-04-28 20:52 40.76119 1.43036 22316 ft 433 kts 237°
2026-04-28 20:52 40.74497 1.39679 22680 ft 435 kts 237°
2026-04-28 20:52 40.72856 1.36315 23030 ft 437 kts 236°
2026-04-28 20:53 40.68973 1.28443 23772 ft 443 kts 236°
2026-04-28 20:53 40.67855 1.26186 23969 ft 444 kts 236°
2026-04-28 20:53 40.66161 1.22773 24258 ft 446 kts 236°
2026-04-28 20:54 40.64463 1.19356 24535 ft 448 kts 236°
2026-04-28 20:54 40.62752 1.15914 24818 ft 449 kts 236°
2026-04-28 20:54 40.61033 1.12457 25083 ft 452 kts 236°
2026-04-28 20:54 40.59305 1.08988 25329 ft 454 kts 236°
2026-04-28 20:55 40.57570 1.05508 25588 ft 456 kts 236°
2026-04-28 20:55 40.55828 1.02019 25844 ft 457 kts 236°
2026-04-28 20:55 40.54012 0.98719 26078 ft 459 kts 229°
2026-04-28 20:55 40.51866 0.95597 26329 ft 460 kts 227°
2026-04-28 20:56 40.49666 0.92535 26631 ft 460 kts 226°
2026-04-28 20:56 40.47466 0.89485 26997 ft 459 kts 226°
2026-04-28 20:56 40.45278 0.86431 27299 ft 459 kts 227°
2026-04-28 20:56 40.43098 0.83361 27563 ft 461 kts 227°
2026-04-28 20:57 40.40920 0.80273 27900 ft 460 kts 227°
2026-04-28 20:57 40.38752 0.77192 28289 ft 459 kts 227°
2026-04-28 20:57 40.36591 0.74120 28716 ft 457 kts 227°
2026-04-28 20:57 40.34440 0.71065 29130 ft 455 kts 227°
2026-04-28 20:58 40.32295 0.68021 29478 ft 455 kts 227°
2026-04-28 20:58 40.30170 0.65011 29787 ft 455 kts 227°
2026-04-28 20:58 40.28019 0.61969 30122 ft 455 kts 227°
2026-04-28 20:58 40.25870 0.58933 30450 ft 453 kts 227°
2026-04-28 20:59 40.23728 0.55912 30696 ft 454 kts 227°
2026-04-28 20:59 40.21569 0.52873 30825 ft 457 kts 227°
2026-04-28 20:59 40.19400 0.49822 31087 ft 457 kts 227°
2026-04-28 20:59 40.17241 0.46786 31476 ft 454 kts 227°
2026-04-28 21:00 40.15099 0.43778 31856 ft 451 kts 227°
2026-04-28 21:00 40.12965 0.40783 32164 ft 450 kts 227°
2026-04-28 21:00 40.10824 0.37781 32424 ft 450 kts 227°
2026-04-28 21:00 40.08693 0.34796 32737 ft 448 kts 227°
2026-04-28 21:01 40.06572 0.31826 33067 ft 446 kts 227°
2026-04-28 21:01 40.04478 0.28897 33323 ft 446 kts 227°
2026-04-28 21:01 40.02358 0.25935 33544 ft 446 kts 227°
2026-04-28 21:01 40.00231 0.22968 33658 ft 449 kts 227°
2026-04-28 21:02 39.98100 0.19996 33887 ft 449 kts 227°
2026-04-28 21:02 39.95970 0.17028 34187 ft 446 kts 227°
2026-04-28 21:02 39.93852 0.14078 34443 ft 445 kts 227°
2026-04-28 21:02 39.91733 0.11129 34627 ft 445 kts 227°
2026-04-28 21:03 39.89608 0.08173 34790 ft 446 kts 227°
2026-04-28 21:03 39.87489 0.05228 34996 ft 445 kts 227°
2026-04-28 21:03 39.85371 0.02289 35220 ft 444 kts 227°
2026-04-28 21:03 39.83323 -0.00549 35416 ft 444 kts 227°
2026-04-28 21:04 39.81234 -0.03440 35587 ft 444 kts 228°
2026-04-28 21:04 39.79116 -0.06367 35736 ft 445 kts 227°
2026-04-28 21:04 39.76991 -0.09300 35844 ft 446 kts 227°
2026-04-28 21:04 39.74860 -0.12239 36023 ft 446 kts 227°
2026-04-28 21:05 39.72734 -0.15170 36241 ft 445 kts 227°
2026-04-28 21:05 39.70617 -0.18085 36463 ft 443 kts 227°
2026-04-28 21:05 39.68501 -0.20998 36644 ft 443 kts 227°
2026-04-28 21:05 39.66380 -0.23913 36790 ft 443 kts 227°
2026-04-28 21:06 39.64262 -0.26823 36935 ft 444 kts 227°
2026-04-28 21:06 39.62136 -0.29741 36950 ft 446 kts 227°
2026-04-28 21:06 39.57869 -0.35588 36954 ft 444 kts 227°
2026-04-28 21:07 39.53662 -0.41345 36969 ft 442 kts 227°
2026-04-28 21:07 39.49403 -0.47056 36951 ft 441 kts 222°
2026-04-28 21:08 39.44309 -0.51441 36979 ft 441 kts 209°
2026-04-28 21:08 39.38860 -0.55140 36962 ft 442 kts 208°
2026-04-28 21:09 39.33411 -0.58863 36944 ft 444 kts 209°
2026-04-28 21:09 39.27957 -0.62637 36960 ft 446 kts 209°
2026-04-28 21:10 39.22474 -0.66441 36960 ft 448 kts 209°
2026-04-28 21:10 39.16996 -0.70234 36960 ft 451 kts 209°
2026-04-28 21:11 39.11456 -0.74062 36956 ft 453 kts 209°
2026-04-28 21:11 39.05885 -0.77903 36966 ft 454 kts 209°
2026-04-28 21:12 39.00303 -0.81741 36964 ft 455 kts 209°
2026-04-28 21:12 38.94733 -0.85566 36955 ft 454 kts 209°
2026-04-28 21:13 38.89160 -0.89387 36953 ft 453 kts 209°
2026-04-28 21:13 38.83625 -0.93176 36959 ft 452 kts 209°
2026-04-28 21:14 38.78078 -0.96967 36964 ft 451 kts 209°
2026-04-28 21:14 38.72617 -1.00692 36959 ft 450 kts 209°
2026-04-28 21:15 38.67081 -1.04457 36962 ft 450 kts 209°
2026-04-28 21:15 38.61583 -1.08192 36944 ft 450 kts 209°
2026-04-28 21:16 38.56052 -1.11944 36954 ft 450 kts 209°
2026-04-28 21:16 38.50516 -1.15693 36959 ft 450 kts 209°
2026-04-28 21:17 38.44982 -1.19434 36956 ft 451 kts 209°
2026-04-28 21:17 38.39426 -1.23184 36946 ft 451 kts 209°
2026-04-28 21:18 38.33879 -1.26921 36949 ft 451 kts 209°
2026-04-28 21:18 38.28321 -1.30659 36941 ft 452 kts 209°
2026-04-28 21:19 38.22796 -1.34368 36940 ft 452 kts 209°
2026-04-28 21:19 38.17229 -1.38099 36947 ft 451 kts 209°
2026-04-28 21:20 38.11669 -1.41819 36942 ft 451 kts 209°
2026-04-28 21:20 38.06111 -1.45531 36945 ft 451 kts 209°
2026-04-28 21:21 38.00556 -1.49236 36949 ft 451 kts 209°
2026-04-28 21:21 37.95001 -1.52935 36950 ft 451 kts 209°
2026-04-28 21:22 37.89445 -1.56622 36942 ft 451 kts 209°
2026-04-28 21:22 37.84810 -1.59647 36942 ft 450 kts 208°
2026-04-28 21:23 37.78314 -1.63855 36946 ft 448 kts 208°
2026-04-28 21:23 37.72764 -1.67452 36949 ft 447 kts 208°
2026-04-28 21:24 37.67232 -1.71035 36943 ft 446 kts 209°
2026-04-28 21:24 37.61746 -1.74584 36945 ft 445 kts 209°
2026-04-28 21:25 37.56233 -1.78146 36945 ft 444 kts 209°
2026-04-28 21:25 37.50730 -1.81694 36941 ft 443 kts 209°
2026-04-28 21:26 37.45238 -1.85229 36945 ft 443 kts 209°
2026-04-28 21:26 37.39748 -1.88758 36943 ft 443 kts 209°
2026-04-28 21:27 37.34263 -1.92278 36956 ft 442 kts 209°
2026-04-28 21:27 37.28819 -1.95767 36942 ft 441 kts 209°
2026-04-28 21:28 37.23357 -1.99268 36940 ft 440 kts 210°
2026-04-28 21:28 37.18027 -2.02817 36944 ft 438 kts 210°
2026-04-28 21:29 37.12660 -2.06428 36932 ft 437 kts 210°
2026-04-28 21:29 37.07297 -2.10017 36940 ft 436 kts 210°
2026-04-28 21:30 37.01940 -2.13585 36938 ft 435 kts 210°
2026-04-28 21:30 36.96603 -2.17132 36932 ft 434 kts 210°
2026-04-28 21:31 36.91306 -2.20648 36938 ft 433 kts 210°
2026-04-28 21:31 36.85945 -2.24201 36942 ft 433 kts 210°
2026-04-28 21:32 36.80919 -2.28171 36949 ft 430 kts 220°
2026-04-28 21:32 36.76262 -2.32844 36938 ft 430 kts 220°
2026-04-28 21:33 36.71603 -2.37520 36927 ft 429 kts 220°
2026-04-28 21:33 36.66940 -2.42158 36936 ft 429 kts 220°
2026-04-28 21:34 36.62275 -2.46771 36927 ft 428 kts 219°
2026-04-28 21:34 36.57597 -2.51382 36927 ft 428 kts 219°
2026-04-28 21:35 36.52926 -2.55979 36932 ft 427 kts 219°
2026-04-28 21:35 36.48261 -2.60564 36932 ft 427 kts 219°
2026-04-28 21:36 36.43597 -2.65141 36933 ft 427 kts 219°
2026-04-28 21:36 36.38940 -2.69704 36933 ft 427 kts 219°
2026-04-28 21:37 36.34278 -2.74265 36940 ft 427 kts 219°
2026-04-28 21:37 36.29642 -2.78793 36940 ft 427 kts 219°
2026-04-28 21:38 36.24977 -2.83342 36933 ft 427 kts 219°
2026-04-28 21:38 36.20288 -2.87908 36930 ft 427 kts 219°
2026-04-28 21:39 36.15607 -2.92458 36934 ft 427 kts 219°
2026-04-28 21:39 36.10928 -2.97000 36936 ft 427 kts 219°
2026-04-28 21:40 36.06353 -3.01434 36929 ft 426 kts 219°
2026-04-28 21:40 36.01681 -3.05954 36955 ft 425 kts 219°
2026-04-28 21:41 35.97815 -3.09690 36931 ft 425 kts 219°
2026-04-28 21:41 35.93160 -3.14181 36927 ft 424 kts 219°
2026-04-28 21:42 35.88518 -3.18654 36923 ft 423 kts 219°
2026-04-28 21:42 35.83874 -3.23121 36924 ft 422 kts 219°
2026-04-28 21:43 35.79242 -3.27570 36915 ft 421 kts 219°
2026-04-28 21:43 35.74617 -3.32006 36914 ft 421 kts 219°
2026-04-28 21:44 35.70024 -3.36405 36912 ft 420 kts 219°
2026-04-28 21:44 35.65409 -3.40817 36906 ft 420 kts 219°
2026-04-28 21:45 35.60791 -3.45226 36911 ft 419 kts 218°
2026-04-28 21:45 35.56187 -3.49616 36903 ft 419 kts 218°
2026-04-28 21:46 35.51576 -3.54004 36913 ft 419 kts 218°
2026-04-28 21:46 35.46966 -3.58385 36900 ft 418 kts 218°
2026-04-28 21:47 35.42393 -3.62725 36897 ft 418 kts 219°
2026-04-28 21:47 35.37788 -3.67090 36906 ft 418 kts 219°
2026-04-28 21:48 35.33183 -3.71446 36899 ft 418 kts 218°
2026-04-28 21:48 35.28574 -3.75801 36916 ft 418 kts 218°
2026-04-28 21:49 35.23970 -3.80145 36917 ft 418 kts 218°
2026-04-28 21:49 35.19355 -3.84494 36906 ft 419 kts 218°
2026-04-28 21:50 35.14726 -3.88848 36885 ft 419 kts 218°
2026-04-28 21:50 35.10093 -3.93199 36904 ft 420 kts 218°
2026-04-28 21:51 35.05478 -3.97527 36906 ft 421 kts 218°
2026-04-28 21:51 35.00891 -4.01824 36909 ft 422 kts 218°
2026-04-28 21:52 34.96226 -4.06186 36919 ft 423 kts 218°
2026-04-28 21:52 34.91548 -4.10554 36893 ft 423 kts 218°
2026-04-28 21:53 34.86868 -4.14918 36929 ft 423 kts 218°
2026-04-28 21:53 34.82198 -4.19266 36932 ft 422 kts 218°
2026-04-28 21:54 34.77527 -4.23609 36923 ft 422 kts 218°
2026-04-28 21:54 34.72892 -4.27912 36940 ft 421 kts 218°
2026-04-28 21:55 34.68226 -4.32236 36914 ft 421 kts 218°
2026-04-28 21:55 34.63569 -4.36547 36934 ft 420 kts 218°
2026-04-28 21:56 34.58914 -4.40850 36931 ft 420 kts 218°
2026-04-28 21:56 34.54291 -4.45116 36931 ft 420 kts 218°
2026-04-28 21:57 34.49644 -4.49400 36938 ft 419 kts 218°
2026-04-28 21:57 34.45001 -4.53673 36932 ft 419 kts 218°
2026-04-28 21:58 34.40353 -4.57945 36951 ft 419 kts 218°
2026-04-28 21:58 34.35708 -4.62208 36928 ft 419 kts 218°
2026-04-28 21:59 34.31067 -4.66460 36936 ft 419 kts 218°
2026-04-28 22:00 34.24097 -4.72836 36930 ft 419 kts 218°
2026-04-28 22:00 34.19479 -4.77053 36955 ft 418 kts 218°
2026-04-28 22:01 34.14837 -4.81287 36957 ft 418 kts 218°
2026-04-28 22:01 34.10185 -4.85523 36969 ft 418 kts 218°
2026-04-28 22:02 34.05534 -4.89753 36990 ft 419 kts 218°
2026-04-28 22:02 34.00879 -4.93981 36996 ft 419 kts 218°
2026-04-28 22:03 33.96234 -4.98218 36995 ft 419 kts 221°
2026-04-28 22:03 33.94297 -5.00724 36998 ft 418 kts 235°
2026-04-28 22:03 33.92825 -5.03743 36998 ft 419 kts 244°
2026-04-28 22:03 33.91838 -5.07053 36984 ft 422 kts 256°
2026-04-28 22:04 33.91323 -5.10537 37010 ft 423 kts 258°
2026-04-28 22:04 33.90387 -5.17537 36990 ft 424 kts 258°
2026-04-28 22:05 33.89432 -5.24540 36976 ft 424 kts 258°
2026-04-28 22:05 33.88449 -5.31502 36962 ft 425 kts 258°
2026-04-28 22:06 33.87441 -5.38520 36959 ft 426 kts 258°
2026-04-28 22:06 33.86423 -5.45561 36971 ft 427 kts 258°
2026-04-28 22:07 33.85401 -5.52608 36967 ft 428 kts 258°
2026-04-28 22:07 33.84372 -5.59673 36967 ft 429 kts 258°
2026-04-28 22:08 33.83338 -5.66738 36944 ft 429 kts 258°
2026-04-28 22:08 33.82306 -5.73769 36938 ft 430 kts 259°
2026-04-28 22:09 33.81262 -5.80852 36934 ft 429 kts 259°
2026-04-28 22:09 33.80216 -5.87919 36038 ft 437 kts 258°
2026-04-28 22:09 33.79681 -5.91522 35011 ft 436 kts 258°
2026-04-28 22:10 33.79149 -5.95096 34398 ft 430 kts 258°
2026-04-28 22:10 33.78629 -5.98597 34103 ft 421 kts 258°
2026-04-28 22:10 33.78122 -6.01990 33457 ft 422 kts 258°
2026-04-28 22:10 33.77601 -6.05465 32738 ft 423 kts 258°
2026-04-28 22:11 33.77077 -6.08956 32062 ft 424 kts 258°
2026-04-28 22:11 33.76552 -6.12443 31340 ft 425 kts 258°
2026-04-28 22:11 33.76031 -6.15904 30636 ft 427 kts 258°
2026-04-28 22:11 33.75500 -6.19423 29875 ft 429 kts 258°
2026-04-28 22:12 33.74966 -6.22956 28983 ft 431 kts 258°
2026-04-28 22:12 33.74429 -6.26504 28143 ft 432 kts 258°
2026-04-28 22:12 33.73889 -6.30062 27284 ft 433 kts 258°
2026-04-28 22:12 33.73350 -6.33612 26689 ft 429 kts 258°
2026-04-28 22:13 33.72820 -6.37122 26070 ft 425 kts 258°
2026-04-28 22:13 33.72299 -6.40599 25484 ft 421 kts 258°
2026-04-28 22:13 33.71781 -6.44050 24894 ft 418 kts 258°
2026-04-28 22:13 33.71269 -6.47460 24311 ft 411 kts 259°
2026-04-28 22:14 33.70766 -6.50795 23725 ft 401 kts 259°
2026-04-28 22:14 33.70275 -6.54047 23089 ft 391 kts 258°
2026-04-28 22:14 33.69786 -6.57269 22513 ft 396 kts 258°
2026-04-28 22:14 33.69270 -6.60604 21917 ft 415 kts 258°
2026-04-28 22:15 33.68731 -6.64031 21283 ft 418 kts 258°
2026-04-28 22:15 33.68192 -6.67447 20663 ft 414 kts 258°
2026-04-28 22:15 33.67657 -6.70833 20061 ft 410 kts 258°
2026-04-28 22:15 33.67129 -6.74181 19483 ft 406 kts 258°
2026-04-28 22:16 33.66605 -6.77500 18914 ft 403 kts 258°
2026-04-28 22:16 33.66085 -6.80783 18344 ft 400 kts 258°
2026-04-28 22:16 33.65549 -6.84049 17697 ft 397 kts 255°
2026-04-28 22:16 33.64452 -6.87047 17077 ft 392 kts 234°
2026-04-28 22:17 33.62639 -6.89397 16546 ft 387 kts 220°
2026-04-28 22:17 33.60381 -6.91125 15971 ft 385 kts 204°
2026-04-28 22:17 33.57867 -6.92222 15437 ft 382 kts 199°
2026-04-28 22:17 33.55347 -6.93197 14879 ft 379 kts 198°
2026-04-28 22:18 33.52840 -6.94145 14330 ft 377 kts 198°
2026-04-28 22:18 33.50348 -6.95092 13785 ft 374 kts 198°
2026-04-28 22:18 33.47874 -6.96045 13170 ft 373 kts 199°
2026-04-28 22:18 33.45412 -6.97005 12595 ft 370 kts 199°
2026-04-28 22:19 33.42972 -6.97961 12049 ft 367 kts 199°
2026-04-28 22:19 33.40551 -6.98914 11499 ft 365 kts 199°
2026-04-28 22:19 33.38150 -6.99861 11093 ft 359 kts 199°
2026-04-28 22:19 33.35876 -7.00756 10928 ft 347 kts 199°
2026-04-28 22:20 33.33620 -7.01645 10772 ft 336 kts 199°
2026-04-28 22:20 33.31432 -7.02507 10627 ft 325 kts 199°
2026-04-28 22:20 33.29344 -7.03328 10486 ft 313 kts 199°
2026-04-28 22:20 33.27331 -7.04120 10358 ft 297 kts 199°
2026-04-28 22:21 33.25421 -7.04871 10231 ft 281 kts 199°
2026-04-28 22:21 33.23608 -7.05583 10119 ft 268 kts 198°
2026-04-28 22:21 33.21863 -7.06268 10024 ft 260 kts 199°
2026-04-28 22:21 33.20151 -7.06948 9893 ft 262 kts 201°
2026-04-28 22:22 33.18637 -7.08173 9600 ft 273 kts 232°
2026-04-28 22:22 33.17836 -7.10215 9321 ft 274 kts 257°
2026-04-28 22:22 33.17479 -7.12446 9010 ft 273 kts 259°
2026-04-28 22:22 33.17156 -7.14679 8723 ft 272 kts 259°
2026-04-28 22:23 33.16832 -7.16906 8433 ft 271 kts 259°
2026-04-28 22:23 33.16502 -7.19114 8157 ft 270 kts 259°
2026-04-28 22:23 33.16166 -7.21313 7885 ft 269 kts 258°
2026-04-28 22:23 33.15827 -7.23499 7617 ft 267 kts 258°
2026-04-28 22:24 33.15492 -7.25648 7347 ft 266 kts 258°
2026-04-28 22:24 33.15154 -7.27816 7078 ft 265 kts 258°
2026-04-28 22:24 33.14817 -7.29971 6813 ft 264 kts 258°
2026-04-28 22:24 33.14480 -7.32122 6540 ft 263 kts 258°
2026-04-28 22:25 33.14143 -7.34268 6252 ft 263 kts 257°
2026-04-28 22:25 33.13808 -7.36404 5963 ft 262 kts 258°
2026-04-28 22:25 33.13473 -7.38534 5750 ft 258 kts 258°
2026-04-28 22:25 33.13147 -7.40612 5619 ft 250 kts 258°
2026-04-28 22:26 33.12832 -7.42619 5512 ft 242 kts 258°
2026-04-28 22:26 33.12525 -7.44564 5395 ft 234 kts 257°
2026-04-28 22:26 33.12235 -7.46401 5322 ft 216 kts 258°
2026-04-28 22:26 33.11978 -7.48111 5105 ft 204 kts 263°
2026-04-28 22:27 33.12230 -7.49715 4898 ft 194 kts 298°
2026-04-28 22:27 33.13121 -7.50880 4711 ft 192 kts 327°
2026-04-28 22:27 33.13950 -7.51213 4569 ft 191 kts 353°
2026-04-28 22:27 33.15253 -7.51426 4411 ft 190 kts 344°
2026-04-28 22:28 33.16932 -7.51973 4320 ft 187 kts 342°
2026-04-28 22:28 33.18200 -7.52402 4110 ft 183 kts 342°
2026-04-28 22:28 33.19393 -7.52810 3841 ft 172 kts 342°
2026-04-28 22:28 33.20158 -7.53073 3689 ft 167 kts 342°
2026-04-28 22:29 33.21245 -7.53448 3477 ft 163 kts 341°
2026-04-28 22:29 33.22340 -7.53826 3272 ft 164 kts 341°
2026-04-28 22:29 33.23433 -7.54203 3058 ft 162 kts 341°
2026-04-28 22:29 33.24514 -7.54575 2841 ft 161 kts 341°
2026-04-28 22:30 33.25591 -7.54946 2633 ft 161 kts 342°
2026-04-28 22:30 33.26666 -7.55316 2419 ft 160 kts 342°
2026-04-28 22:30 33.27731 -7.55683 2205 ft 158 kts 342°
2026-04-28 22:30 33.28795 -7.56050 1997 ft 157 kts 342°
2026-04-28 22:31 33.29847 -7.56412 1785 ft 157 kts 343°
2026-04-28 22:31 33.30901 -7.56774 1567 ft 157 kts 342°
2026-04-28 22:31 33.31938 -7.57132 1355 ft 157 kts 343°
2026-04-28 22:31 33.32981 -7.57492 1151 ft 155 kts 341°
2026-04-28 22:32 33.34022 -7.57848 966 ft 155 kts 342°
2026-04-28 22:32 33.35043 -7.58203 736 ft 156 kts 342°
2026-04-28 22:32 33.36039 -7.58554 651 ft 136 kts 344°
2026-04-28 22:32 33.36808 -7.58809 650 ft 93 kts 344°
2026-04-28 22:33 33.37287 -7.58974 647 ft 50 kts 343°
2026-04-28 22:33 33.37597 -7.59084 647 ft 44 kts 343°
2026-04-28 22:33 33.37785 -7.59121 645 ft 20 kts 21°
2026-04-28 22:33 33.37848 -7.58986 647 ft 19 kts 74°
2026-04-28 22:34 33.37868 -7.58835 646 ft 18 kts 111°
2026-04-28 22:34 33.37863 -7.58817 646 ft 4 kts 92°
2026-04-28 22:34 33.37894 -7.58778 645 ft 9 kts 54°
2026-04-28 22:34 33.37914 -7.58694 645 ft 12 kts 91°
2026-04-28 22:35 33.37871 -7.58597 646 ft 15 kts 126°
2026-04-28 22:35 33.37797 -7.58502 646 ft 17 kts 146°
2026-04-28 22:35 33.37715 -7.58461 646 ft 12 kts 164°
2026-04-28 22:35 33.37636 -7.58436 647 ft 11 kts 161°
2026-04-28 22:36 33.37607 -7.58356 647 ft 9 kts 94°
2026-04-28 22:36 33.37606 -7.58344 647 ft 0 kts 93°